EHI
26 25 25 23 14 8 7 7 6 4 2 1 0 0 0 0 0 0 0 0 0 0 0 0 0 0 0 0 0 0 0 0 0 0 0 0 0 0 0 0 0 0 0
29 27 27 25 17 10 7 6 6 6 4 1 0 0 0 0 0 0 0 0 0 0 0 0 0 0 0 0 0 0 0 0 0 0 0 0 0 0 0 0 0 0 0
29 26 26 27 23 13 7 6 7 6 5 2 0 0 0 0 0 0 0 0 0 0 0 0 0 0 0 0 0 0 0 0 0 0 0 0 0 0 0 0 0 0 0
23 22 25 28 26 17 10 8 7 6 4 2 1 0 0 0 0 0 0 0 0 0 0 0 0 0 0 0 0 0 0 0 0 0 0 0 0 0 0 0 0 0 0
16 19 26 30 27 20 13 10 9 7 5 3 2 1 1 0 0 0 0 0 0 0 0 0 0 0 0 0 0 0 0 0 0 0 0 0 0 0 0 0 0 0 0
13 18 25 29 28 23 17 13 11 9 6 4 3 2 1 0 0 0 0 0 0 0 0 0 0 0 0 0 0 0 0 0 0 0 0 0 0 0 0 0 0 0 0
16 19 22 26 28 25 21 18 15 11 8 5 3 1 1 0 0 0 0 0 0 0 0 0 0 0 0 0 0 0 0 0 0 0 0 0 0 0 0 0 0 0 0
17 17 17 21 23 23 22 21 18 14 10 7 4 2 0 0 0 0 0 0 0 0 0 0 0 0 0 0 0 0 0 0 0 0 0 0 0 0 0 0 0 0 0
14 14 12 13 14 15 17 18 16 13 9 6 4 3 1 0 0 0 0 0 0 0 0 1 1 1 1 0 0 0 0 0 0 0 0 0 0 0 0 0 0 0 0
13 12 9 8 10 11 11 10 9 7 5 3 2 1 0 0 0 0 0 0 0 0 0 0 1 1 1 0 0 0 0 0 0 0 0 0 0 0 0 0 0 0 0
14 12 9 8 10 10 7 4 2 2 1 1 0 0 0 0 0 0 0 0 0 0 0 0 0 1 0 0 0 0 0 0 0 0 0 0 0 0 0 0 0 0 0
15 12 10 9 9 8 5 2 0 0 0 0 0 0 0 0 0 0 0 0 0 0 0 0 0 1 0 0 0 0 0 0 0 0 0 0 0 0 0 0 0 0 0
12 10 9 10 8 6 4 3 1 1 0 0 0 0 0 0 0 0 0 0 0 0 0 0 0 0 0 0 0 0 0 0 0 0 0 0 0 0 0 0 0 0 0
7 7 8 8 7 5 4 3 3 2 1 0 0 0 0 0 0 0 0 0 0 0 0 0 0 0 0 0 0 0 0 0 0 0 0 0 0 0 0 0 0 0 0
3 4 5 6 5 4 4 3 3 2 1 0 0 0 0 0 0 0 0 0 0 0 0 0 0 0 0 0 0 0 0 0 0 0 0 0 0 0 0 0 0 0 0
2 2 3 3 2 2 3 3 3 1 0 1 1 1 1 1 0 0 0 0 0 0 0 0 0 0 0 0 0 0 0 0 0 0 0 0 0 0 0 0 0 0 0
1 0 1 1 1 1 1 3 2 1 0 1 2 1 1 0 0 0 0 0 0 0 0 0 0 0 0 0 0 0 0 0 0 0 0 0 0 0 0 0 0 0 0
0 0 0 0 0 0 1 2 2 1 1 1 1 1 0 0 0 0 0 0 0 0 0 0 0 0 0 0 0 0 0 0 0 0 0 0 0 0 0 0 0 0 0
0 0 0 0 0 0 0 1 1 1 0 0 0 0 0 0 0 0 0 0 0 0 0 0 0 0 0 0 0 0 0 0 0 0 0 0 0 0 0 0 0 0 0
0 0 0 0 0 0 0 0 0 0 0 0 0 0 0 0 0 0 0 0 0 0 0 0 0 0 0 0 0 0 0 0 0 0 0 0 0 0 0 0 0 0 0
0 0 0 0 0 0 0 0 0 0 0 0 0 0 0 0 0 0 0 0 0 0 0 0 0 0 0 0 0 0 0 0 0 0 0 0 0 0 0 0 0 0 0
0 0 0 0 0 0 0 0 0 0 0 0 0 0 0 0 0 0 0 0 0 0 0 0 0 0 0 0 0 0 0 0 0 0 0 0 0 0 0 0 0 0 0
0 0 0 0 0 0 0 0 0 0 0 0 0 0 0 0 0 0 0 0 0 0 0 0 0 0 0 0 0 0 0 0 0 0 0 0 0 0 0 0 0 0 0
0 0 0 0 0 0 0 0 0 0 0 0 0 0 0 0 0 0 0 0 0 0 0 0 0 0 0 0 0 0 0 0 0 0 0 0 0 0 0 0 0 0 0
0 0 0 0 0 0 0 0 0 0 0 0 0 0 0 0 0 0 0 0 0 0 0 0 0 0 0 0 0 0 0 0 0 0 0 0 0 0 0 0 0 0 0
0 0 0 0 0 0 0 0 0 0 0 0 0 0 0 0 0 0 0 0 0 0 0 0 0 0 0 0 0 0 0 0 0 0 0 0 0 0 0 0 0 0 0
Wind_Speed
8 10 11 11 11 11 10 10 9 9 9 9 9 9 9 9 8 9 9 9 8 9 9 9 9 10 10 10 11 11 11 11 11 11 11 10 10 11 11 10 10 8 12
10 11 11 11 11 10 10 9 8 8 8 8 8 8 8 8 8 9 8 8 8 8 8 8 8 9 9 9 10 10 10 9 9 9 8 8 8 10 11 11 11 7 11
11 11 11 10 10 10 9 9 8 7 7 7 8 8 8 8 8 8 8 8 8 8 8 7 8 8 8 8 8 9 8 7 5 4 5 4 6 9 9 9 9 10 9
10 10 10 10 10 9 9 9 8 8 7 7 7 7 7 7 7 7 8 8 8 7 7 7 7 8 8 8 7 7 6 4 2 2 1 4 5 8 8 8 8 8 8
8 9 10 11 10 9 9 8 8 7 7 7 6 6 7 7 7 7 7 7 7 7 7 6 7 7 7 7 6 6 4 2 2 3 1 4 5 7 7 7 7 7 7
7 9 10 10 10 9 8 8 8 7 6 6 6 6 6 6 7 7 6 6 6 6 7 7 7 7 7 6 6 5 3 3 4 2 1 4 5 6 6 6 5 6 6
6 8 9 9 9 8 8 8 7 7 6 6 6 6 6 6 6 6 6 6 7 7 7 7 7 7 7 6 6 5 3 3 4 1 2 4 5 7 5 4 4 4 4
6 7 8 9 8 8 7 7 7 6 5 5 5 5 5 5 6 6 7 7 7 7 8 7 8 7 7 7 6 5 4 4 4 1 3 4 7 6 5 3 3 3 3
5 6 5 5 6 6 7 6 6 6 5 5 5 5 4 4 5 6 7 7 7 7 7 7 8 8 7 7 6 5 5 6 4 2 3 4 6 6 5 3 3 2 2
5 5 4 4 4 4 4 5 5 5 5 5 5 5 4 4 5 6 6 6 7 7 7 7 8 8 8 7 7 6 6 5 4 3 2 5 8 6 5 4 3 2 1
4 3 3 3 3 3 3 4 4 4 5 5 4 5 5 3 3 4 5 5 6 7 7 7 8 8 7 7 8 7 5 3 4 2 2 7 8 6 5 4 3 2 2
3 3 2 3 2 2 2 2 2 2 3 3 3 4 3 2 3 3 5 7 7 7 7 8 8 8 6 4 6 7 4 5 4 2 4 9 8 7 6 5 4 3 3
3 3 2 2 2 2 1 1 1 1 1 2 2 2 2 2 2 2 2 3 4 5 4 5 5 4 5 4 4 5 5 4 3 2 5 10 8 8 7 6 5 4 4
2 2 2 3 2 2 1 0 1 1 1 1 1 1 1 1 1 2 2 2 3 3 3 3 3 5 5 5 6 6 6 4 2 2 4 9 8 8 7 6 6 5 5
2 2 2 2 2 1 1 0 1 0 1 1 1 1 0 1 1 1 2 2 2 2 3 3 4 5 5 4 4 5 5 5 4 3 3 8 9 8 8 7 6 6 6
2 2 2 2 1 1 0 0 0 0 0 1 1 0 1 0 1 1 1 2 2 2 2 3 4 3 3 2 3 4 4 4 4 4 5 6 9 9 9 8 7 7 6
2 1 1 1 1 1 1 1 0 0 0 1 0 0 1 0 1 1 1 1 2 1 2 2 3 2 2 2 3 3 3 3 3 3 4 4 5 8 9 9 8 7 6
2 1 1 1 1 1 1 1 1 1 1 0 0 0 1 1 1 1 1 2 1 1 1 1 2 1 1 2 2 2 2 2 2 2 3 3 4 4 6 9 8 7 7
2 2 1 1 1 1 1 1 1 1 1 1 0 0 1 1 1 1 1 2 2 1 1 1 1 1 1 1 2 2 2 2 2 2 2 3 3 3 3 5 7 7 7
2 2 1 1 1 1 0 0 0 1 1 0 0 0 0 1 1 1 1 2 1 1 1 1 1 1 1 1 1 1 2 2 2 2 2 2 2 3 4 4 4 4 6
2 1 1 1 1 1 1 0 0 1 1 1 0 1 1 1 2 1 1 1 1 1 2 2 1 2 1 1 0 1 2 2 2 2 2 2 2 2 3 3 3 3 3
2 1 1 1 1 0 0 0 0 1 1 1 1 0 1 1 1 1 1 1 1 1 2 2 1 1 1 1 2 1 1 2 2 2 1 2 2 2 2 3 3 4 3
2 2 1 1 0 0 0 1 1 1 1 1 1 1 1 1 1 1 2 1 1 1 2 2 2 2 2 2 2 2 2 2 1 1 2 2 2 1 2 2 3 3 3
3 3 2 1 1 1 1 0 1 1 1 1 1 1 2 2 1 1 2 2 2 2 2 2 2 2 2 2 2 2 2 1 1 1 2 1 1 2 2 1 2 2 3
3 3 2 2 2 1 1 1 1 2 2 1 1 2 2 2 1 1 2 2 2 2 2 2 2 3 3 3 2 2 2 1 1 2 3 2 2 2 2 2 1 1 1
2 2 2 2 3 2 2 2 3 3 2 2 2 2 2 1 1 1 2 2 2 2 2 2 2 3 3 3 3 2 2 2 2 2 2 2 2 2 2 2 2 2 2
Wind_Direction
118 128 131 131 133 138 139 138 137 134 136 136 136 135 133 131 128 126 125 124 123 121 118 114 111 105 99 94 91 89 91 91 92 91 85 81 79 77 72 67 77 73 75
124 128 131 130 131 133 135 136 134 133 135 140 141 141 144 143 140 139 136 135 131 128 124 120 115 111 106 100 97 97 99 101 104 105 100 88 82 78 72 69 74 81 77
123 128 133 130 133 133 133 131 132 134 138 143 145 147 149 152 151 149 147 143 140 136 131 128 123 120 114 109 106 106 109 113 122 134 132 120 99 88 81 78 79 79 78
123 130 134 132 133 135 135 134 133 136 140 144 147 151 155 154 155 158 157 152 147 142 138 134 131 126 123 119 118 118 121 134 166 234 188 130 108 98 91 86 82 78 77
121 126 128 133 133 133 135 136 137 138 142 145 149 154 156 159 161 163 161 152 148 146 143 140 138 133 131 131 133 136 145 188 269 274 116 98 98 105 97 91 85 81 78
117 120 128 131 133 133 136 138 139 140 143 148 153 156 158 162 166 165 153 149 150 151 151 149 148 144 143 145 149 157 177 240 285 260 120 104 106 109 102 96 89 82 77
110 117 129 128 133 135 141 144 145 147 149 151 157 163 166 168 170 167 160 155 158 161 161 163 162 160 158 159 165 177 202 256 270 270 96 97 110 116 110 103 96 86 78
100 115 129 129 133 139 142 145 149 152 153 156 164 166 168 172 177 172 168 167 170 174 174 174 173 174 173 174 179 191 214 251 264 231 122 112 124 127 122 116 105 95 83
95 105 117 129 131 134 141 142 148 153 156 162 171 171 172 179 180 178 178 179 181 184 183 183 183 184 186 188 190 199 219 244 275 264 139 122 137 139 136 131 126 114 94
92 102 114 119 126 132 141 147 150 158 165 170 173 173 176 183 183 179 180 185 188 189 189 190 192 193 195 197 201 205 220 246 256 242 138 135 146 150 154 157 154 146 130
92 96 106 110 110 121 143 148 154 161 167 173 173 174 177 184 181 182 186 189 192 193 195 198 201 200 200 203 205 207 214 235 241 203 139 144 154 163 168 171 177 185 190
98 89 91 95 103 113 126 128 155 165 161 177 176 175 186 191 191 191 180 188 194 197 201 205 209 207 205 204 206 205 216 232 236 185 154 153 165 175 180 185 196 211 218
94 85 75 79 79 75 87 129 140 154 162 185 188 188 190 190 182 176 173 180 194 199 204 206 207 211 212 205 195 201 215 227 222 179 158 160 173 186 194 197 208 224 229
94 92 73 64 63 57 63 70 146 146 155 158 172 215 198 175 188 184 191 192 196 201 204 202 207 215 220 216 202 204 207 219 218 163 162 165 175 192 203 208 217 228 234
100 87 80 78 78 57 45 30 40 69 128 145 168 211 242 187 201 200 207 202 213 209 203 205 213 215 219 224 218 213 209 214 211 179 159 173 177 191 205 215 222 226 231
122 106 81 64 87 95 100 88 172 70 53 79 104 207 282 275 220 217 226 212 225 224 215 208 220 221 216 214 223 224 219 215 208 185 169 178 185 191 201 213 222 228 232
122 115 99 81 69 52 31 352 349 301 117 99 121 232 240 261 270 250 236 224 228 234 227 224 232 229 218 217 222 230 231 225 214 196 180 174 182 195 203 212 219 223 228
116 103 80 44 44 45 38 356 338 329 6 68 145 298 297 279 288 289 269 250 240 226 230 231 225 227 221 215 225 236 236 232 229 213 191 177 172 182 203 209 210 215 224
132 118 99 71 44 36 39 302 300 315 348 338 335 75 329 300 272 268 269 268 264 239 221 238 236 212 220 224 232 236 242 231 230 225 207 190 179 172 174 196 203 212 221
114 112 110 94 69 40 18 324 317 320 314 329 319 33 317 311 292 273 267 280 279 259 238 222 234 239 222 212 255 267 260 246 229 229 226 196 179 178 174 177 185 205 217
116 103 89 76 58 56 16 307 290 284 293 312 326 344 314 297 296 274 275 273 269 244 250 238 213 221 226 170 102 306 286 259 232 226 211 191 185 181 178 182 180 182 200
148 137 138 113 65 57 324 305 257 276 266 249 272 316 299 296 288 282 252 255 252 243 252 252 239 208 216 176 153 163 275 288 275 236 202 191 200 188 191 199 196 194 192
170 166 179 170 182 160 30 1 341 318 306 304 309 304 298 300 301 303 280 256 241 216 226 240 238 219 218 218 182 173 190 227 284 271 232 206 188 192 214 210 202 200 199
175 160 172 199 197 197 174 200 249 252 256 261 251 250 268 258 256 259 274 258 244 230 222 224 227 223 208 213 231 232 213 174 185 276 295 257 218 219 225 220 211 214 204
157 158 180 208 209 194 201 219 232 263 268 278 279 272 275 265 243 240 258 250 244 238 230 224 224 224 214 210 208 214 230 237 223 203 250 258 267 249 237 237 235 224 205
153 157 184 210 219 201 207 222 223 238 255 271 270 264 266 270 263 250 260 254 248 239 233 225 222 224 222 221 218 209 197 194 204 210 235 241 250 257 258 251 238 222 212